Location: Veyrier
(46.1830°N, 6.2000°E)
Time: 12:31:57
(UTC+02:00)

Daily predictions for brighter satellites

Satellite Brightness Start Highest point End
(mag) Time Altitude Azimuth Time Altitude Azimuth Time Altitude Azimuth
Cosmos 468 Rocket 4.0 21:58:51 10° NNW 22:04:00 71° ENE 22:09:06 10° SSE
ARGOS 3.6 22:01:46 10° SE 22:06:57 49° ENE 22:12:10 10° N
Cosmos 1766 Rocket 3.7 22:02:52 10° S 22:07:05 53° E 22:11:20 10° NNE
Cosmos 1328 Rocket 4.3 22:03:11 10° N 22:07:12 36° ENE 22:11:11 10° SE
ERS-1 Rocket 3.0 22:03:33 10° SSE 22:08:34 78° ENE 22:13:38 10° NNW
Cosmos 2227 Rocket 4.4 22:03:49 10° WSW 22:08:50 32° NW 22:13:52 10° N
Tiangong 1 1.4 22:08:17 10° WSW 22:10:56 38° S 22:13:34 10° ESE
Helios 1A 4.1 22:07:55 10° S 22:11:52 43° W 22:15:51 10° NNW
Cosmos 1459 Rocket 4.1 22:06:23 10° N 22:12:43 87° W 22:18:55 10° S
Cosmos 1867 3.7 22:07:27 10° SW 22:12:54 83° NW 22:18:25 10° NE
Cosmos 1943 3.7 22:09:10 10° NNW 22:14:39 49° ENE 22:20:08 10° SE
Cosmos 1515 Rocket 4.5 22:11:19 10° N 22:15:15 32° ENE 22:19:09 10° SE
SAR-Lupe-4 4.5 22:13:01 10° S 22:16:29 48° W 22:19:59 10° NNW
SL-16 R/B 3.7 22:12:41 10° NW 22:17:41 33° WSW 22:22:39 10° SSW
Abrixas 3.9 22:16:27 10° S 22:18:12 16° SE 22:19:57 10° ESE
CZ-3B R/B 4.3 22:15:33 10° SSW 22:18:47 55° SE 22:30:02 10° NE
Cosmos 1356 Rocket 3.7 22:14:46 10° SSW 22:19:02 78° WNW 22:23:22 10° N
SL-14 R/B 4.0 22:15:30 10° SSE 22:19:06 35° E 22:22:42 10° NNE
H-2A R/B 4.1 22:20:12 10° E 22:22:45 16° ENE 22:25:16 10° NNE
Cosmos 1743 Rocket 4.2 22:18:59 10° SSE 22:22:56 36° E 22:26:54 10° NNE
USA 245 3.7 22:19:25 10° SSE 22:23:00 55° ENE 22:27:33 10° N
Cosmos 2100 Rocket 4.4 22:17:21 10° NNW 22:23:39 69° W 22:29:57 10° S
Cosmos 1242 Rocket 3.7 22:20:37 10° NNW 22:24:10 43° W 22:27:41 10° SSW
RESURS DK-1 2.7 22:22:22 10° NNW 22:26:30 64° WSW 22:30:37 10° SSE
Cosmos 1674 3.5 22:23:53 10° SSW 22:27:34 53° WNW 22:31:15 10° N
Cosmos 371 Rocket 3.3 22:23:00 10° NNW 22:27:51 78° ENE 22:32:40 10° SSE
Cosmos 2058 4.3 22:26:01 10° SE 22:29:17 23° E 22:32:38 10° NE
YAOGAN 11 4.3 22:25:54 10° SSE 22:30:22 69° ENE 22:34:56 10° N
Cosmos 2173 Rocket 4.4 22:24:27 10° NNW 22:30:34 66° W 22:36:44 10° S
Cosmos 1328 4.1 22:28:10 10° SSE 22:32:03 49° E 22:35:58 10° NNE
Cosmos 2228 Rocket 3.3 22:28:10 10° N 22:32:45 62° E 22:37:13 10° SSE
Cosmos 1455 4.1 22:32:04 10° NNE 22:34:46 18° ENE 22:37:22 10° ESE
Cosmos 2123 Rocket 4.0 22:29:42 10° S 22:35:47 65° E 22:41:57 10° NNE
Cosmos 2061 Rocket 4.5 22:29:57 10° NNW 22:36:17 66° W 22:42:38 10° S
Cosmos 220 Rocket 4.1 22:33:55 10° S 22:38:16 62° ESE 22:42:36 10° NNE
H-2A R/B 2.3 22:34:52 11° SSE 22:40:01 62° ENE 22:45:25 10° N
Meteor 2-10 4.3 22:41:02 10° N 22:46:41 89° E 22:52:23 10° S
Lacrosse 5 2.9 22:45:32 10° WNW 22:50:09 36° SW 22:54:18 12° SSE
SPOT 5 3.1 22:47:18 10° S 22:52:12 77° WSW 22:57:25 10° NNW
Cosmos 2285 Rocket 4.4 22:46:53 10° NNW 22:53:05 52° ENE 22:58:17 15° SE
Cosmos 1725 Rocket 4.1 22:49:28 10° N 22:55:45 82° W 23:01:56 10° S
SL-08 RB Rocket 3.9 22:53:19 11° S 22:57:40 74° WSW 23:02:20 10° NNW
Landsat 7 3.9 22:59:35 16° SSE 23:03:21 70° ENE 23:08:06 10° N
ERBS 3.7 23:00:25 10° WNW 23:03:21 27° SW 23:05:18 16° S
Cosmos 2151 3.0 23:01:36 13° S 23:05:19 64° E 23:09:37 10° NNE
Meteor 1-11 4.3 23:00:17 10° S 23:06:04 70° E 23:11:51 10° NNE
Cosmos 1354 Rocket 4.3 23:04:16 12° S 23:08:49 47° ESE 23:13:50 10° NNE
USA 234 3.3 23:04:18 10° ENE 23:10:41 53° SE 23:17:03 10° SSW
Cosmos 1763 Rocket 4.0 23:07:13 10° NNW 23:12:12 54° WSW 23:16:21 14° S
Cosmos 841 Rocket 3.7 23:07:01 10° NNW 23:12:15 70° WSW 23:16:18 17° S
Cosmos 2263 Rocket 2.1 23:08:34 10° SSW 23:14:06 70° ESE 23:19:41 10° NNE
ATLAS 5 CENTAUR R/B 4.3 23:11:22 10° W 23:15:29 27° NNW 23:19:59 10° NNE
deb Chang Zheng 4 4.5 23:14:00 10° NNE 23:17:58 32° E 23:19:59 22° SE
Terra 1.9 23:15:01 20° SSE 23:18:16 69° ENE 23:23:02 10° N
Cosmos 1486 Rocket 4.2 23:13:14 10° SSW 23:18:30 78° WNW 23:23:52 10° NNE
Abrixas rocket 3.8 23:16:00 10° W 23:18:34 21° SW 23:19:26 19° SSW
Meteor 1-27 4.3 23:13:39 10° NNW 23:19:29 81° W 23:24:05 16° S
EO 1 Delta rocket 4.4 23:15:52 12° S 23:20:04 55° W 23:24:45 10° NNW
Cosmos 1703 3.3 23:17:43 19° S 23:20:25 67° E 23:24:24 10° NNE
Cosmos 1464 Rocket 4.5 23:15:31 10° N 23:21:26 47° ENE 23:25:32 20° SE
Cosmos 1626 2.0 23:19:33 20° S 23:22:00 72° E 23:25:44 10° NNE
Cosmos 1726 4.3 23:20:12 10° NW 23:23:04 21° W 23:25:54 10° SW
DMSP B5D2-2 4.0 23:19:01 10° NNE 23:24:16 77° ESE 23:28:49 14° S
Cosmos 304 Rocket 3.7 23:20:04 10° NNW 23:24:54 87° ENE 23:27:54 23° SSE
Cosmos 1356 3.7 23:23:44 14° SSW 23:26:36 68° WNW 23:30:06 10° N
Cosmos 1500 Rocket 4.0 23:22:29 10° SSW 23:26:55 64° W 23:31:21 10° N
CZ-4 R/B 4.4 23:24:04 10° NNE 23:28:37 40° E 23:30:59 24° SSE
COSMOS 2406 4.1 23:24:46 10° NNW 23:30:04 39° NE 23:34:05 16° ESE
CZ-4C R/B 3.0 23:30:57 23° SSE 23:33:03 30° ESE 23:38:03 10° NE
SPOT 1/Viking Rocket 4.4 23:31:09 13° SSW 23:35:28 43° W 23:40:23 10° NNW
Cosmos 1666 Rocket 4.4 23:33:49 24° SE 23:35:36 34° E 23:39:38 10° NNE
CZ-3A R/B 2.3 23:35:05 10° NW 23:35:20 14° NW 23:35:20 14° NW
CARTOSAT-1 3.6 23:34:51 24° S 23:37:26 76° WSW 23:41:46 10° NNW
IGS 5A 3.5 23:36:57 25° S 23:39:19 76° WSW 23:43:30 10° NNW
Cosmos 2233 Rocket 4.5 23:39:19 10° NNW 23:45:21 55° W 23:50:20 15° SSW
Cosmos 1151 Rocket 4.3 23:41:41 10° NNW 23:45:44 36° W 23:48:56 15° SSW
Tiangong 1 3.0 23:44:07 10° WSW 23:45:05 15° SW 23:45:05 15° SW
Cosmos 1805 Rocket 3.5 23:44:11 28° S 23:46:20 65° E 23:50:38 10° NNE
Cosmos 2084 Rocket 3.6 23:42:43 10° NNW 23:46:29 56° NE 23:48:19 27° ESE
Cosmos 1844 Rocket 3.6 23:45:14 24° SE 23:47:06 29° ESE 23:51:52 10° NE
SL-24 R/B - RUBIN 2 4.4 23:43:18 10° NNW 23:48:52 56° NE 23:52:03 22° ESE
Cosmos 1633 Rocket 3.7 23:48:41 29° SE 23:50:11 39° E 23:54:15 10° NNE
Abrixas 2.0 23:49:56 10° WSW 23:52:39 83° SSE 23:53:38 35° ENE
PSLV R/B 2.9 23:54:08 56° S 23:54:38 81° WSW 23:57:30 10° NNW
SL-24 R/B 4.5 23:53:03 33° SSE 23:54:51 74° ENE 23:59:07 10° N
Spot 4 3.8 23:52:30 29° SSE 23:55:02 81° ENE 23:59:56 10° NNW
